DECAYED

OBJECT L, 43841 (Decayed)

Orbit data source: Space-Track

You're viewing an Uncataloged Satellite

Recently launched and/or uncataloged satellites may have evolving metadata. Metadata may include but not limited to: Owner, Maufacturer, Bus, Motor, and Mission.

OBJECT L, 43841 was a satellite in LEO that was launched on Fri, 07 Dec 2018 UTC via a CHANG ZHENG 2D launch vehicle from the Jiuquan Satellite Launch Center, China (JSC). Unknown objects in Earth's orbit typically refer to objects detected orbiting the Earth but have not yet been identified or cataloged. These objects could be anything from previously untracked satellites, spent rocket stages, debris from satellite collisions, or even natural meteoroids temporarily captured by Earth's gravity. This object's orbit decayed before it could be identified.

Not visible in the next 10 days
OBJECT L details
Identifier
43841, 2018-102L
Orbit
Decayed
Last TLE update8 months ago
Origin
Flag of TBDBTWK/ALIEX (TBD)
ManufacturerJiutian
MissionDecayed Commercial Communications
Bus & MotorCUBESAT 3U?, Unknown motor
Mass5 kg wet, 5 kg dry
Launch date (UTC)
2018-12-07 (6 years ago)
Launch vehicle
CHANG ZHENG 2D
Launch site
Jiuquan Satellite Launch Center, China (JSC)
Object typeUnknown
Shape & HBRBox, 0.3 m
Radar Cross Section0.035 m², Small (<0.1 m²)

Expand to show TLE details & history

TLE from 8 months ago
0 OBJECT L
1 43841U 18102L   24131.14994296  .15197164  25856-5  38788-3 0  9999
2 43841  97.4154 227.2257 0016048 271.4559  88.4904 16.44433122300478
Epoch: 2024-05-10T03:35Z
Definitive object data (Epoch: 2024-05-10T03:35:55.071Z)
Latitude-0.00007°
Longitude-55.18833°
Altitude157.034 km
Speed7.812 km/s
True Right ascension15h 08m 54s
True Declination0° 00' 00"
Sunlit
Object was in full shadow at TLE epoch
Visualization observer readout
Observer readout values are unavailable because the object's trajectory could not be propagated. This is usually caused when the trajectory data is faulty or the object's orbit has decayed.
Visualization observer readout
Observer readout values are unavailable because the object's trajectory could not be propagated. This is usually caused when the trajectory data is faulty or the object's orbit has decayed.
Orbital elements
Apogee altitude161.316 km
Perigee altitude140.361 km
Semi-major axis6,528.976 km
Eccentricity0.0016048
Inclination97.4154°
RAAN227.2257°
Arg. of periapsis271.4559°
True anomaly88.67424°
Mean anomaly88.4904°
Eccentric anomaly88.58232°
Mean motion4.11411 °/min
BSTAR0.00038788
Orbital period87.5 mins
Loading maneuver chart data...
Loading historical data...
Loading historical data...
Loading historical data...
Loading historical data...
Loading historical data...
Loading historical data...
Loading historical data...

OBJECT L Visibility forecast

Observer location: undefined°, undefined

This satellite is decayed
Span
Click to sort rows by Start time (UTC) header in descending order
Start Az.
Max El. time (UTC)
Max El. Az.
Max El.
End time (UTC)
End Az.
|